Tracking 19969 objects as of 13-Nov-2019
Live streaming from Space Station
objects crossing your sky now
Track the group of recently launched Starlink satellites

NOAA 16 DEB

Track NOAA 16 DEB now!
10-day predictions


NORAD ID: 41079
Int'l Code: 2000-055AN
Perigee: 858.0 km
Apogee: 1,074.2 km
Inclination: 98.9 °
Period: 104.2 minutes
Semi major axis: 7337 km
RCS: Unknown
Launch date: September 21, 2000
Source: United States (US)
Launch site: AIR FORCE WESTERN TEST RANGE (AFWTR)

Note: This is SATELLITE DEBRIS
aabbcc
Your satellite tracking list
Your tracking list is empty




NASA's NSSDC Master Catalog

Two Line Element Set (TLE):
1 41079U 00055AN  19317.03722336  .00000103  00000-0  12492-3 0  9993
2 41079  98.9086 333.3948 0147321  13.3546 347.1443 13.81381061199744
Source of the keplerian elements: AFSPC